Temp
-7 -7 -7 -7 -7 -7 -7 -7 -7 -6 -6 -6 -6 -6 -5 -5 -5 -5 -6 -6 -7 -7 -8 -8 -8 -8 -8 -8 -8 -8 -8 -7 -7 -7 -7 -8 -9 -9 -10 -10 -9 -10 -8 -10 -9
-7 -7 -7 -7 -7 -7 -7 -7 -6 -6 -6 -6 -6 -5 -5 -5 -5 -5 -7 -7 -7 -7 -8 -9 -9 -9 -9 -9 -9 -9 -9 -8 -8 -8 -8 -8 -8 -9 -11 -11 -11 -11 -9 -10 -9
-7 -7 -7 -7 -7 -7 -7 -7 -6 -6 -6 -6 -5 -5 -5 -5 -5 -6 -7 -7 -8 -8 -9 -9 -10 -10 -11 -11 -11 -11 -10 -10 -9 -10 -10 -9 -8 -10 -11 -11 -11 -10 -8 -9 -9
-8 -7 -7 -7 -7 -7 -7 -7 -7 -6 -6 -6 -6 -6 -6 -6 -7 -7 -9 -9 -10 -10 -11 -11 -12 -12 -12 -13 -12 -12 -11 -11 -10 -10 -11 -10 -10 -9 -11 -11 -12 -12 -9 -9 -9
-8 -8 -8 -7 -7 -7 -7 -7 -7 -7 -6 -6 -6 -7 -7 -8 -8 -9 -11 -11 -13 -14 -15 -15 -16 -15 -15 -15 -15 -14 -13 -12 -12 -12 -11 -12 -10 -9 -9 -9 -12 -13 -12 -9 -9
-8 -8 -8 -8 -8 -7 -7 -7 -7 -7 -7 -7 -7 -7 -8 -9 -9 -10 -13 -15 -16 -16 -17 -17 -17 -17 -17 -16 -16 -16 -15 -14 -13 -13 -13 -12 -11 -12 -10 -9 -9 -11 -11 -8 -9
-8 -8 -9 -8 -8 -8 -8 -7 -7 -7 -7 -7 -8 -8 -9 -10 -11 -13 -16 -17 -17 -18 -18 -18 -18 -18 -18 -17 -17 -17 -17 -16 -15 -14 -14 -14 -13 -11 -11 -12 -10 -9 -9 -8 -8
-8 -8 -9 -9 -8 -8 -8 -8 -8 -8 -8 -8 -8 -9 -10 -11 -14 -16 -17 -18 -18 -18 -18 -19 -18 -18 -17 -17 -17 -17 -17 -17 -17 -17 -16 -17 -13 -12 -11 -12 -12 -11 -9 -8 -8
-8 -9 -9 -8 -8 -8 -8 -8 -8 -8 -9 -9 -9 -10 -11 -13 -16 -17 -17 -18 -18 -18 -18 -17 -18 -17 -17 -17 -17 -18 -18 -18 -18 -18 -18 -18 -15 -12 -13 -13 -12 -12 -11 -10 -9
-8 -9 -9 -9 -8 -8 -8 -8 -9 -9 -9 -10 -10 -10 -12 -16 -17 -17 -17 -18 -18 -18 -17 -17 -17 -17 -18 -18 -18 -20 -19 -19 -19 -19 -19 -18 -19 -16 -16 -14 -14 -12 -11 -11 -10
-9 -9 -9 -9 -9 -9 -9 -9 -9 -9 -9 -10 -11 -13 -15 -17 -17 -17 -18 -18 -17 -17 -17 -17 -17 -17 -18 -19 -18 -19 -20 -19 -19 -19 -19 -18 -19 -17 -19 -18 -15 -13 -12 -11 -11
-9 -9 -9 -9 -10 -10 -10 -10 -10 -10 -10 -11 -13 -15 -16 -17 -17 -17 -17 -17 -17 -17 -17 -17 -17 -19 -19 -19 -19 -19 -19 -19 -19 -19 -19 -19 -19 -19 -19 -18 -18 -14 -12 -12 -11
-10 -10 -10 -10 -10 -10 -10 -10 -10 -10 -11 -11 -13 -15 -17 -17 -17 -17 -17 -18 -17 -17 -17 -17 -18 -19 -19 -18 -19 -19 -18 -19 -20 -20 -19 -18 -18 -19 -19 -18 -17 -17 -13 -13 -12
-10 -10 -10 -10 -10 -11 -11 -11 -11 -11 -12 -13 -16 -16 -17 -17 -16 -17 -17 -17 -17 -17 -17 -17 -17 -17 -17 -18 -19 -18 -19 -19 -20 -20 -18 -19 -19 -19 -19 -19 -18 -17 -15 -13 -11
-10 -10 -10 -11 -12 -12 -12 -11 -12 -12 -12 -14 -17 -17 -16 -17 -17 -17 -16 -16 -16 -17 -17 -17 -17 -17 -17 -18 -18 -18 -19 -18 -19 -18 -19 -17 -20 -19 -20 -19 -19 -17 -13 -13 -12
-10 -10 -10 -11 -11 -12 -12 -12 -12 -12 -14 -16 -17 -18 -17 -17 -18 -17 -16 -16 -16 -17 -17 -17 -17 -17 -18 -18 -18 -18 -18 -18 -18 -18 -19 -17 -20 -18 -19 -19 -19 -18 -15 -12 -13
-10 -10 -11 -11 -13 -13 -12 -12 -12 -13 -15 -16 -17 -17 -18 -19 -18 -17 -17 -17 -17 -16 -17 -17 -17 -17 -17 -18 -18 -18 -19 -19 -19 -19 -18 -19 -18 -18 -19 -19 -19 -19 -17 -13 -12
-10 -11 -11 -12 -13 -13 -13 -13 -13 -14 -16 -16 -17 -18 -18 -19 -18 -18 -17 -17 -17 -17 -17 -16 -17 -17 -18 -18 -18 -19 -19 -19 -18 -20 -19 -18 -18 -18 -19 -19 -19 -19 -18 -14 -12
-11 -12 -12 -13 -13 -13 -14 -13 -14 -14 -15 -16 -16 -17 -19 -18 -18 -17 -17 -17 -17 -17 -17 -17 -17 -17 -18 -18 -18 -18 -18 -19 -19 -19 -19 -18 -18 -19 -19 -19 -19 -18 -18 -16 -13
-11 -12 -13 -13 -14 -14 -13 -14 -14 -14 -15 -17 -17 -17 -18 -18 -18 -17 -17 -16 -16 -17 -17 -17 -16 -18 -18 -18 -18 -18 -19 -19 -19 -19 -19 -19 -18 -18 -18 -19 -18 -18 -17 -17 -14
-13 -13 -14 -14 -14 -14 -14 -15 -15 -15 -15 -16 -17 -17 -18 -18 -18 -17 -17 -17 -17 -17 -17 -18 -17 -17 -18 -18 -18 -18 -18 -18 -19 -18 -19 -19 -18 -19 -18 -18 -18 -17 -16 -15 -15
-14 -13 -14 -14 -14 -15 -15 -15 -15 -15 -16 -16 -16 -17 -17 -17 -17 -17 -17 -17 -17 -17 -18 -18 -17 -18 -18 -18 -18 -18 -18 -19 -19 -18 -19 -19 -18 -19 -18 -18 -17 -16 -15 -15 -14
-14 -14 -14 -14 -14 -14 -14 -15 -15 -15 -16 -17 -17 -17 -17 -17 -16 -17 -17 -17 -17 -17 -18 -18 -17 -17 -17 -18 -18 -18 -19 -19 -18 -18 -18 -19 -18 -18 -18 -17 -17 -16 -15 -15 -16
-14 -14 -15 -15 -15 -15 -15 -15 -15 -15 -16 -17 -17 -17 -17 -17 -17 -16 -17 -17 -17 -17 -18 -18 -18 -18 -17 -18 -18 -18 -19 -19 -19 -18 -18 -19 -18 -19 -17 -17 -17 -17 -16 -15 -15
-15 -15 -15 -14 -15 -15 -15 -15 -15 -16 -16 -17 -17 -17 -17 -16 -17 -17 -17 -17 -17 -17 -18 -18 -18 -18 -18 -18 -18 -18 -18 -19 -18 -18 -18 -19 -18 -18 -17 -17 -18 -16 -16 -15 -14
-15 -15 -15 -15 -15 -15 -15 -15 -16 -16 -16 -16 -17 -17 -17 -17 -17 -16 -17 -17 -17 -17 -18 -18 -18 -18 -18 -18 -18 -18 -18 -18 -19 -19 -18 -18 -18 -19 -18 -18 -17 -16 -15 -14 -14
-15 -15 -15 -15 -15 -15 -16 -16 -16 -16 -16 -16 -17 -17 -17 -17 -17 -16 -16 -16 -17 -17 -17 -18 -18 -18 -18 -18 -18 -18 -18 -18 -18 -19 -18 -18 -18 -18 -19 -18 -17 -16 -15 -14 -13
Height
5838 5836 5834 5831 5828 5826 5822 5819 5815 5812 5808 5804 5800 5796 5792 5789 5786 5782 5781 5778 5776 5774 5773 5773 5773 5772 5773 5775 5776 5775 5777 5781 5790 5795 5802 5811 5814 5819 5828 5829 5834 5836 5844 5850 5842
5835 5833 5831 5828 5824 5821 5817 5813 5809 5805 5801 5796 5792 5788 5783 5779 5775 5771 5771 5767 5763 5760 5758 5757 5757 5757 5757 5759 5759 5758 5760 5770 5778 5782 5785 5794 5801 5808 5815 5821 5821 5824 5832 5837 5832
5832 5829 5827 5824 5820 5816 5812 5807 5803 5798 5793 5788 5784 5779 5774 5769 5764 5762 5758 5753 5747 5744 5742 5741 5739 5739 5741 5741 5742 5742 5746 5756 5760 5764 5769 5775 5781 5787 5796 5804 5813 5812 5818 5828 5824
5830 5826 5823 5819 5815 5811 5807 5802 5796 5791 5785 5780 5774 5769 5763 5757 5751 5746 5739 5733 5730 5725 5721 5719 5719 5719 5720 5722 5724 5724 5730 5737 5742 5748 5748 5754 5762 5768 5776 5787 5800 5802 5805 5816 5820
5827 5823 5819 5814 5810 5806 5801 5796 5789 5783 5776 5771 5765 5758 5751 5744 5735 5730 5721 5713 5707 5705 5704 5703 5703 5702 5705 5706 5708 5709 5716 5719 5725 5727 5730 5738 5747 5753 5759 5772 5777 5786 5794 5803 5811
5824 5819 5815 5810 5805 5800 5795 5789 5783 5776 5769 5762 5755 5746 5737 5728 5715 5713 5702 5697 5693 5692 5691 5690 5690 5690 5692 5694 5694 5698 5700 5704 5708 5710 5713 5719 5730 5737 5752 5761 5763 5769 5776 5788 5797
5820 5814 5809 5804 5799 5795 5789 5783 5776 5769 5761 5754 5745 5734 5726 5717 5702 5688 5689 5682 5682 5681 5681 5681 5682 5683 5684 5685 5686 5687 5687 5690 5693 5697 5699 5706 5708 5720 5741 5746 5749 5756 5766 5775 5787
5816 5810 5804 5799 5794 5788 5782 5776 5769 5762 5752 5744 5733 5721 5712 5700 5688 5679 5676 5675 5674 5673 5674 5675 5676 5676 5677 5677 5678 5679 5678 5680 5688 5687 5688 5689 5692 5712 5724 5727 5735 5744 5755 5765 5775
5812 5806 5799 5794 5788 5782 5776 5769 5762 5754 5743 5733 5723 5709 5700 5689 5681 5673 5671 5669 5669 5668 5668 5670 5670 5670 5670 5669 5670 5670 5671 5673 5675 5677 5677 5679 5680 5698 5702 5705 5718 5731 5741 5752 5763
5808 5801 5795 5789 5782 5775 5769 5762 5754 5750 5739 5726 5716 5704 5688 5678 5671 5669 5666 5667 5667 5665 5664 5663 5664 5662 5662 5660 5661 5665 5668 5667 5665 5668 5667 5665 5669 5679 5682 5689 5697 5714 5729 5739 5749
5803 5797 5790 5783 5776 5768 5761 5754 5747 5734 5722 5713 5699 5687 5679 5673 5669 5666 5665 5665 5662 5661 5660 5659 5656 5655 5654 5655 5656 5657 5659 5659 5660 5661 5659 5658 5657 5663 5671 5675 5682 5695 5714 5725 5737
5799 5792 5784 5777 5769 5762 5753 5745 5735 5727 5719 5706 5697 5683 5676 5671 5667 5665 5664 5662 5659 5657 5656 5655 5652 5650 5649 5648 5649 5652 5649 5650 5652 5654 5653 5651 5649 5653 5658 5661 5670 5680 5698 5712 5724
5794 5787 5779 5771 5763 5756 5750 5740 5729 5718 5709 5699 5690 5682 5671 5668 5665 5663 5662 5660 5657 5655 5653 5650 5648 5645 5643 5642 5642 5643 5642 5643 5644 5644 5643 5642 5639 5643 5648 5651 5654 5664 5684 5698 5710
5789 5781 5773 5765 5757 5747 5738 5730 5720 5708 5696 5685 5673 5674 5669 5666 5663 5661 5660 5658 5656 5652 5649 5645 5642 5639 5637 5636 5636 5634 5638 5636 5635 5634 5631 5635 5627 5631 5633 5638 5646 5651 5668 5684 5698
5784 5776 5768 5758 5752 5744 5736 5725 5714 5703 5694 5687 5679 5675 5669 5664 5660 5657 5656 5654 5652 5648 5643 5643 5637 5634 5631 5631 5629 5628 5628 5628 5626 5625 5624 5623 5622 5620 5625 5626 5630 5640 5654 5674 5689
5778 5770 5761 5753 5746 5738 5729 5719 5709 5699 5688 5682 5677 5670 5666 5662 5657 5653 5650 5649 5646 5643 5639 5635 5633 5629 5627 5625 5623 5623 5621 5620 5619 5618 5612 5616 5614 5609 5611 5613 5623 5633 5646 5663 5675
5773 5763 5755 5747 5739 5732 5723 5715 5707 5695 5689 5682 5675 5669 5663 5659 5654 5649 5647 5644 5638 5634 5633 5630 5626 5623 5621 5618 5618 5616 5616 5613 5611 5609 5606 5610 5602 5599 5602 5605 5608 5622 5636 5651 5665
5768 5758 5749 5741 5735 5726 5718 5711 5700 5694 5684 5677 5669 5663 5659 5654 5650 5646 5642 5639 5636 5632 5627 5622 5623 5618 5615 5614 5613 5612 5610 5608 5605 5604 5602 5597 5592 5595 5592 5595 5601 5612 5627 5641 5655
5761 5754 5745 5736 5729 5722 5714 5705 5697 5689 5680 5672 5665 5655 5651 5649 5644 5640 5638 5635 5632 5627 5623 5617 5616 5614 5611 5608 5606 5605 5603 5605 5599 5597 5595 5596 5592 5588 5588 5589 5594 5599 5617 5629 5645
5755 5747 5739 5732 5724 5717 5712 5701 5693 5685 5676 5668 5661 5653 5648 5645 5642 5637 5635 5630 5626 5622 5617 5612 5606 5607 5603 5599 5600 5595 5599 5597 5596 5592 5591 5590 5587 5581 5580 5583 5586 5598 5612 5626 5638
5749 5742 5733 5727 5722 5714 5705 5699 5690 5681 5673 5666 5658 5652 5646 5643 5638 5634 5630 5626 5621 5617 5610 5604 5599 5600 5594 5592 5589 5588 5589 5590 5590 5588 5586 5584 5583 5580 5579 5580 5578 5587 5600 5624 5634
5747 5740 5733 5726 5719 5710 5703 5695 5686 5678 5669 5661 5655 5649 5643 5638 5636 5631 5626 5619 5614 5609 5604 5598 5593 5589 5589 5584 5582 5582 5584 5584 5583 5584 5583 5581 5580 5580 5577 5576 5585 5588 5599 5618 5637
5741 5735 5728 5721 5714 5707 5698 5689 5681 5675 5665 5658 5652 5646 5640 5636 5631 5628 5622 5616 5609 5604 5599 5595 5590 5584 5584 5582 5579 5577 5578 5578 5578 5578 5578 5577 5576 5574 5575 5581 5585 5586 5604 5615 5636
5736 5730 5724 5715 5707 5701 5696 5688 5680 5669 5661 5654 5649 5643 5637 5634 5626 5620 5617 5612 5606 5602 5597 5589 5587 5583 5579 5576 5573 5571 5570 5571 5572 5573 5574 5571 5573 5572 5572 5578 5580 5581 5588 5620 5635
5730 5724 5717 5712 5706 5698 5691 5683 5673 5667 5659 5650 5645 5638 5631 5626 5626 5619 5614 5608 5602 5598 5593 5588 5584 5578 5575 5570 5566 5564 5564 5566 5567 5569 5568 5569 5569 5569 5572 5581 5585 5587 5588 5611 5630
5726 5721 5714 5706 5699 5693 5685 5678 5671 5664 5656 5648 5641 5636 5628 5622 5617 5616 5611 5604 5599 5595 5590 5585 5579 5575 5571 5567 5564 5561 5560 5560 5561 5563 5564 5565 5566 5569 5567 5576 5586 5590 5595 5607 5612
5719 5714 5707 5701 5695 5688 5681 5674 5668 5659 5652 5643 5636 5632 5624 5620 5616 5610 5605 5600 5596 5592 5586 5581 5576 5573 5569 5564 5561 5555 5556 5557 5557 5558 5560 5562 5565 5569 5571 5574 5584 5590 5605 5610 5624
Wind_Speed
16 15 16 19 23 25 27 30 34 36 38 38 40 41 42 43 44 46 46 47 46 47 46 45 47 51 55 57 59 61 61 61 57 55 52 48 48 40 26 35 49 46 50 32 52
17 17 19 22 26 28 30 33 37 39 40 41 43 45 47 48 51 52 51 51 54 54 54 52 51 52 55 58 62 66 68 64 61 60 59 56 52 50 37 28 37 45 56 41 55
20 21 23 26 30 31 33 36 40 42 44 44 45 48 49 53 56 57 55 58 59 59 58 58 58 58 58 60 62 64 69 67 67 66 65 63 62 52 48 39 36 51 59 61 58
23 25 27 28 31 32 35 38 42 44 46 48 50 53 56 59 62 65 58 60 59 58 59 59 61 61 59 57 60 62 66 69 71 70 72 73 70 70 60 56 42 41 49 56 59
26 26 27 29 32 34 36 40 44 47 51 53 56 59 61 63 66 63 58 60 56 52 49 47 46 47 49 49 48 54 62 66 68 71 75 73 76 75 72 67 58 46 41 51 61
30 31 30 31 33 35 39 42 46 49 53 56 61 64 65 65 70 64 55 48 42 39 37 36 37 38 39 41 43 43 50 59 66 70 73 75 76 77 74 71 72 65 58 60 58
36 37 32 32 34 37 41 44 47 51 55 59 63 65 63 61 60 62 43 38 31 31 32 31 32 33 31 29 30 32 36 38 52 64 67 71 77 80 77 73 75 74 70 67 61
38 40 35 34 36 39 42 46 50 54 58 62 64 65 63 59 51 42 33 29 27 23 22 25 26 27 28 29 30 33 37 39 37 43 54 55 75 78 77 80 76 73 70 68 64
41 43 38 36 39 41 45 50 52 56 61 65 62 62 62 53 34 27 24 18 16 19 20 19 25 29 30 31 34 32 30 31 35 37 40 43 65 76 74 79 82 78 73 69 67
42 44 39 38 40 43 46 51 54 55 60 59 58 63 55 34 28 19 16 13 16 19 20 25 23 25 23 26 29 17 22 28 29 23 32 37 35 51 50 71 80 81 77 71 68
42 43 43 41 42 45 47 52 57 61 64 61 58 52 41 29 21 15 12 13 18 20 20 21 26 24 20 16 23 25 27 30 32 24 34 38 42 50 30 36 66 79 78 76 70
44 47 47 45 44 44 49 53 58 60 58 55 44 46 32 23 16 14 12 16 20 22 21 23 25 20 16 21 26 29 32 27 26 27 28 33 35 38 38 39 40 69 77 78 75
44 48 49 48 43 44 45 51 56 58 58 52 47 43 28 16 14 15 15 17 22 21 23 24 19 18 25 24 27 33 35 30 29 27 30 33 39 42 48 46 53 50 72 75 77
48 50 49 50 46 47 50 52 55 57 55 54 47 40 32 20 13 14 11 16 16 21 22 20 18 20 19 20 26 33 31 33 32 31 31 26 37 32 28 41 52 54 62 76 78
49 52 52 49 45 43 46 50 52 53 48 48 35 32 31 24 22 17 13 13 19 20 24 16 20 22 22 20 22 26 29 30 30 32 32 31 34 34 31 40 45 54 73 72 73
49 51 51 46 43 42 44 47 49 51 42 35 34 31 29 25 21 22 23 24 22 21 21 21 21 22 20 23 23 26 26 29 29 28 32 15 28 25 30 33 35 53 68 78 76
51 50 46 43 39 40 43 45 48 47 41 34 31 32 28 23 21 23 23 23 27 29 25 25 25 23 20 21 21 21 23 25 28 27 28 20 29 28 27 33 38 36 59 72 79
50 48 46 39 36 39 42 42 48 41 37 34 36 31 24 25 21 21 23 23 25 27 30 31 22 26 23 27 21 23 21 25 27 22 26 28 32 29 13 21 43 38 53 64 79
51 46 46 38 35 39 41 45 42 44 41 36 35 31 16 19 25 22 22 25 25 29 31 33 27 24 26 28 20 25 23 21 28 26 30 20 20 26 16 19 41 40 45 57 76
49 45 45 39 37 40 42 46 45 44 38 33 32 28 17 14 17 18 19 26 29 31 33 34 35 25 28 26 20 27 19 20 28 28 26 17 21 24 9 17 40 35 32 27 49
47 46 42 39 38 41 46 43 42 41 37 34 30 28 23 17 16 19 25 28 30 32 34 36 37 29 32 22 17 20 19 21 22 23 23 23 18 22 16 26 30 36 42 35 39
43 43 39 36 39 40 43 43 44 41 35 32 33 31 27 24 18 23 26 32 35 33 32 29 30 24 19 20 15 15 19 22 26 23 25 23 26 17 17 34 25 27 43 35 33
42 44 43 42 42 43 45 47 44 41 35 28 30 32 30 27 24 22 26 28 29 28 26 23 26 25 18 10 12 13 16 20 22 23 20 23 22 25 22 33 32 29 45 47 43
44 43 46 46 45 42 45 43 41 42 38 33 28 30 30 22 25 29 25 25 21 21 23 27 24 26 21 20 19 22 21 20 24 20 16 20 13 16 31 40 36 30 39 53 51
43 45 46 46 43 42 43 45 46 42 40 35 29 33 35 25 15 22 23 20 21 22 24 25 26 27 19 18 18 18 25 26 20 17 23 17 19 17 25 45 37 34 40 61 57
43 43 44 48 46 46 46 44 42 42 39 36 30 30 34 22 25 17 19 19 19 21 22 24 26 22 16 16 18 14 11 18 22 21 24 20 22 12 30 41 41 39 57 64 55
42 45 48 48 44 45 43 44 40 40 40 39 33 30 27 19 20 21 22 19 20 21 22 20 21 19 18 17 13 16 7 7 10 17 20 25 23 21 20 39 59 47 55 53 50
Wind_Direction
346 344 341 339 335 334 332 332 332 329 329 329 328 325 321 316 311 306 307 300 296 291 284 273 264 258 256 252 249 248 248 250 248 247 247 239 236 224 229 251 227 234 226 219 232
337 335 336 335 333 332 330 331 331 330 329 328 326 324 320 316 310 303 306 302 296 289 284 278 269 262 255 252 249 247 245 246 244 243 242 240 235 227 209 230 233 231 226 209 235
338 330 331 329 331 330 331 329 329 329 329 328 324 322 318 313 307 304 304 298 292 288 281 274 268 262 255 251 249 248 245 243 242 240 238 239 234 222 213 210 239 238 231 224 234
338 329 326 326 328 328 329 327 328 329 329 328 325 322 317 313 309 307 306 297 290 280 272 265 261 259 256 251 247 247 246 243 242 240 239 235 233 231 217 210 221 233 234 223 224
346 337 331 325 324 326 327 327 328 329 330 329 326 322 318 315 311 312 302 294 284 277 273 271 269 266 264 261 254 250 247 244 242 241 241 238 233 233 226 222 211 218 224 223 224
343 334 326 324 324 326 328 330 329 328 329 327 325 321 319 316 313 310 300 290 287 282 273 266 262 263 263 261 261 258 250 246 243 241 241 239 237 236 233 232 226 220 217 225 217
342 339 329 326 326 328 331 332 331 329 327 327 326 322 320 319 313 307 300 296 286 274 268 262 262 268 269 265 263 263 264 256 246 245 246 243 238 235 230 233 234 230 229 224 222
343 342 336 332 331 331 332 333 333 332 329 330 327 323 325 321 313 307 306 294 288 277 268 266 271 273 275 271 266 267 264 264 263 260 251 252 241 235 235 233 230 232 232 231 223
342 342 336 332 331 330 330 331 330 334 333 332 328 327 327 323 319 310 305 299 293 291 288 269 275 278 276 273 267 263 262 265 273 269 266 262 251 236 235 235 232 230 229 228 227
342 344 338 333 331 329 329 330 330 332 333 332 329 329 331 332 330 314 302 297 298 298 291 292 289 284 280 272 262 260 268 270 260 238 227 230 240 248 248 238 236 230 227 228 226
339 341 340 332 330 329 329 330 330 333 334 337 338 338 333 328 326 321 318 314 305 305 307 305 307 308 292 255 249 246 254 252 260 266 241 233 233 236 233 252 237 232 228 227 225
337 338 338 336 332 332 332 333 334 335 339 339 340 346 330 330 327 334 325 310 309 312 307 307 309 309 294 270 229 242 252 262 266 252 262 270 266 254 236 216 225 232 225 226 225
338 339 338 336 332 330 331 334 336 337 340 338 346 349 333 337 321 319 312 312 308 310 305 304 308 277 268 256 249 260 259 263 265 261 252 254 254 256 252 225 220 225 224 221 225
339 338 337 336 331 333 335 338 340 343 341 348 346 353 351 338 318 300 294 309 305 308 306 316 302 301 285 277 255 259 267 275 272 266 265 258 263 259 255 242 220 217 216 218 220
339 338 338 336 332 335 336 338 340 340 348 342 334 337 344 338 327 315 299 300 308 311 310 310 304 301 287 282 266 268 261 266 271 267 272 274 261 265 257 237 219 210 215 214 218
339 338 336 336 329 333 337 342 345 343 349 334 337 332 333 325 325 314 316 314 312 319 316 317 304 300 296 271 272 270 267 268 273 276 268 299 267 274 258 230 230 210 224 212 214
338 337 336 333 334 332 336 343 339 352 343 333 326 317 320 321 311 309 312 314 318 320 320 323 314 308 300 294 276 275 278 278 274 269 285 285 260 275 272 232 205 212 216 215 212
338 334 331 332 327 333 336 339 351 346 338 339 333 318 314 301 319 311 312 315 310 314 318 318 316 309 305 272 277 258 262 262 275 274 276 288 294 309 271 238 206 200 208 216 213
335 332 331 328 330 336 343 345 350 347 341 342 341 336 295 292 312 310 311 309 312 317 314 312 308 303 304 288 265 273 264 268 271 273 281 294 301 295 261 241 198 185 202 214 212
332 334 332 330 333 339 335 347 348 347 339 342 347 352 348 327 317 308 309 311 316 316 313 310 307 299 297 299 287 271 252 252 267 271 276 292 279 280 209 253 182 175 177 198 212
334 336 336 336 339 339 346 345 348 346 340 340 342 345 343 340 343 330 323 320 318 316 310 302 302 311 307 306 281 257 248 254 260 269 287 276 284 272 248 222 197 174 174 184 208
334 340 339 335 341 345 342 344 348 345 340 335 340 340 342 338 343 331 325 324 320 318 316 312 312 317 313 300 286 255 239 249 257 263 269 272 281 274 238 209 173 165 153 166 190
333 338 339 338 335 338 342 343 345 345 340 334 334 337 332 329 320 319 324 326 324 320 319 326 330 325 322 303 268 251 239 241 253 260 260 266 271 294 201 196 168 170 156 159 165
330 334 338 339 339 341 342 340 342 346 345 339 333 328 329 323 324 327 328 324 323 325 322 326 337 328 322 312 273 245 235 230 240 248 252 257 271 200 189 193 184 161 149 159 163
332 333 333 336 337 338 339 341 345 346 344 338 335 333 331 317 324 315 325 332 326 323 326 323 326 324 324 322 306 287 237 237 248 241 240 243 238 268 210 190 195 168 160 160 159
332 332 335 335 338 339 342 343 342 342 343 340 336 335 333 318 320 335 335 330 340 336 325 321 321 326 323 330 326 302 276 255 246 232 236 246 249 270 200 188 185 168 159 163 168
333 331 330 331 336 337 340 339 339 341 345 341 337 337 336 321 326 338 336 332 337 338 338 339 335 328 326 325 309 314 231 242 240 238 235 240 244 234 231 201 172 182 165 164 174